Weather History for KLWM - January, 2014

Change the Weather History Date:

Monday, January 27, 2014

  Actual Average Record
Temperature  
Mean Temperature 31 °F -  
Max Temperature 43 °F 37 °F 58 °F (1950)
Min Temperature 19 °F 17 °F -7 °F (1935)
Degree Days  
Heating Degree Days 34    
Moisture  
Dew Point 13 °F    
Average Humidity 56    
Maximum Humidity 74    
Minimum Humidity 33    
Precipitation  
Precipitation 0.02 in - - ()
Sea Level Pressure  
Sea Level Pressure 29.74 in    
Wind  
Wind Speed 6 mph (West)    
Max Wind Speed 18 mph    
Max Gust Speed 34 mph    
Visibility 10 miles    
Events Rain    
Averages and records for this station are not official NWS values.
T = Trace of Precipitation, MM = Missing Value Source: NWS Daily Summary

Daily Weather History Graph

Daily Weather History Graph

Search for Another Location

Airport or City:

Trip Planner

Search our weather history database for the weather conditions in past years. The results will help you decide how hot, cold, wet, or windy it might be!

Date:

Astronomy

Jan. 27, 2014 Rise Set
Actual Time 7:03 AM EST 4:51 PM EST
Civil Twilight 6:33 AM EST 5:21 PM EST
Nautical Twilight 5:59 AM EST 5:55 PM EST
Astronomical Twilight 5:26 AM EST 6:29 PM EST
Moon 3:42 AM EST (1/27) 1:33 PM EST (1/27)
Length of Visible Light 10h 48m
Length of Day
9h 47m
Waning Crescent, 15% of the Moon is Illuminated
Jan 27
Waning Crescent
Jan 30
New
Feb 6
First Quarter
Feb 14
Full
Feb 22
Last Quarter

Hourly Weather History & Observations

Time (EST) Temp. Windchill Dew Point Humidity Pressure Visibility Wind Dir Wind Speed Gust Speed Precip Events Conditions
12:54 AM 21.0 °F - 9.0 °F 60% 29.86 in 10.0 mi Calm Calm - N/A   Overcast
1:54 AM 21.9 °F - 9.0 °F 58% 29.84 in 10.0 mi Calm Calm - N/A   Overcast
2:54 AM 21.9 °F - 10.9 °F 63% 29.81 in 10.0 mi Calm Calm - N/A   Overcast
3:54 AM 23.0 °F - 12.0 °F 63% 29.75 in 10.0 mi Calm Calm - N/A   Overcast
4:54 AM 19.9 °F - 12.0 °F 71% 29.72 in 10.0 mi Calm Calm - N/A   Clear
5:54 AM 19.9 °F - 12.9 °F 74% 29.69 in 10.0 mi Calm Calm - N/A   Mostly Cloudy
6:54 AM 21.0 °F - 14.0 °F 74% 29.67 in 10.0 mi Calm Calm - N/A   Partly Cloudy
7:54 AM 24.1 °F 19.7 °F 15.1 °F 69% 29.63 in 10.0 mi SSW 3.5 mph - N/A   Overcast
8:54 AM 28.9 °F 22.8 °F 19.9 °F 69% 29.58 in 10.0 mi SSW 5.8 mph - N/A   Overcast
9:54 AM 34.0 °F 31.0 °F 25.0 °F 70% 29.59 in 10.0 mi WSW 3.5 mph - 0.00 in Rain Light Rain
10:54 AM 42.1 °F 35.2 °F 33.1 °F 70% 29.56 in 10.0 mi South 12.7 mph 21.9 mph 0.01 in Rain Light Rain
11:54 AM 43.0 °F 35.4 °F 34.0 °F 71% 29.52 in 10.0 mi SSW 16.1 mph 21.9 mph 0.01 in Rain Light Rain
12:54 PM 43.0 °F 35.1 °F 33.1 °F 68% 29.53 in 10.0 mi SW 17.3 mph 24.2 mph 0.00 in   Mostly Cloudy
1:54 PM 39.0 °F 29.6 °F 26.1 °F 60% 29.58 in 10.0 mi WNW 18.4 mph 28.8 mph N/A   Overcast
2:54 PM 37.0 °F 28.1 °F 21.9 °F 54% 29.62 in 10.0 mi West 15.0 mph 25.3 mph N/A   Mostly Cloudy
3:54 PM 33.1 °F 21.9 °F 15.1 °F 48% 29.69 in 10.0 mi West 18.4 mph 34.5 mph N/A   Overcast
4:54 PM 30.0 °F 18.3 °F 3.9 °F 33% 29.74 in 10.0 mi WNW 17.3 mph 29.9 mph N/A   Overcast
5:54 PM 27.0 °F 14.7 °F 1.0 °F 33% 29.80 in 10.0 mi West 16.1 mph 21.9 mph N/A   Clear
6:54 PM 27.0 °F 16.1 °F 1.0 °F 33% 29.84 in 10.0 mi West 12.7 mph - N/A   Clear
7:54 PM 26.1 °F 16.8 °F 1.0 °F 34% 29.88 in 10.0 mi WNW 9.2 mph 18.4 mph N/A   Clear
8:54 PM 24.1 °F 11.5 °F 3.0 °F 40% 29.92 in 10.0 mi NW 15.0 mph 21.9 mph N/A   Clear
9:54 PM 21.9 °F 11.7 °F 1.0 °F 40% 29.94 in 10.0 mi WNW 9.2 mph - N/A   Clear
10:54 PM 21.0 °F 9.9 °F 1.0 °F 42% 29.96 in 10.0 mi West 10.4 mph - N/A   Clear
11:54 PM 19.9 °F 12.1 °F 5.0 °F 52% 29.99 in 10.0 mi West 5.8 mph - N/A   Clear